Weather History for State College, PA

Change the Weather History Date:

Thursday, November 14, 2013

  Actual Average Record
Temperature  
Mean Temperature 40 °F -  
Max Temperature 51 °F 45 °F 66 °F (1964)
Min Temperature 29 °F 30 °F 13 °F (1986)
Degree Days  
Heating Degree Days 25    
Moisture  
Dew Point 15 °F    
Average Humidity 44    
Maximum Humidity 61    
Minimum Humidity 18    
Precipitation  
Precipitation 0.00 in - - ()
Sea Level Pressure  
Sea Level Pressure 30.22 in    
Wind  
Wind Speed 10 mph (WSW)    
Max Wind Speed 15 mph    
Max Gust Speed 20 mph    
Visibility 10 miles    
Events      
Averages and records for this station are not official NWS values.
T = Trace of Precipitation, MM = Missing Value Source: NWS Daily Summary

Daily Weather History Graph

Daily Weather History Graph

Search for Another Location

Airport:

Trip Planner

Search our weather history database for the weather conditions in past years. The results will help you decide how hot, cold, wet, or windy it might be!

Date:

Astronomy

Nov. 14, 2013 Rise Set
Actual Time 6:57 AM EST 4:53 PM EST
Civil Twilight 6:28 AM EST 5:23 PM EST
Nautical Twilight 5:55 AM EST 5:56 PM EST
Astronomical Twilight 5:22 AM EST 6:28 PM EST
Moon 3:14 PM EST (11/14) 3:49 AM EST (11/14)
Length of Visible Light 10h 54m
Length of Day
9h 56m
Waxing Gibbous, 91% of the Moon is Illuminated
Nov 14
Waxing Gibbous
Nov 17
Full
Nov 25
Last Quarter
Dec 2
New
Dec 9
First Quarter

Hourly Weather History & Observations

Time (EST) Temp. Windchill Dew Point Humidity Pressure Visibility Wind Dir Wind Speed Gust Speed Precip Events Conditions
12:15 AM 30.6 °F 20.7 °F 18.5 °F 61% 30.26 in 10.0 mi WSW 12.7 mph - N/A   Clear
12:35 AM 30.9 °F 21.2 °F 18.3 °F 60% 30.25 in 10.0 mi WSW 12.7 mph - N/A   Clear
12:55 AM 31.1 °F 20.5 °F 18.0 °F 58% 30.25 in 10.0 mi SW 15.0 mph 19.6 mph N/A   Clear
1:15 AM 31.1 °F 21.9 °F 18.0 °F 58% 30.24 in 10.0 mi SW 11.5 mph - N/A   Clear
1:35 AM 30.7 °F 22.0 °F 18.0 °F 59% 30.24 in 10.0 mi SW 10.4 mph - N/A   Clear
1:55 AM 30.7 °F 22.0 °F 17.6 °F 58% 30.24 in 10.0 mi SW 10.4 mph - N/A   Clear
2:15 AM 30.7 °F 22.0 °F 17.8 °F 59% 30.24 in 10.0 mi WSW 10.4 mph - N/A   Clear
2:35 AM 30.7 °F 23.3 °F 18.1 °F 60% 30.24 in 10.0 mi SW 8.1 mph - N/A   Clear
2:55 AM 30.9 °F 22.8 °F 17.6 °F 58% 30.24 in 10.0 mi SW 9.2 mph - N/A   Clear
3:15 AM 29.8 °F 23.0 °F 17.6 °F 60% 30.24 in 10.0 mi SW 6.9 mph - N/A   Clear
3:35 AM 30.4 °F 22.2 °F 17.1 °F 58% 30.24 in 10.0 mi SW 9.2 mph - N/A   Clear
3:55 AM 30.2 °F 22.6 °F 16.7 °F 57% 30.24 in 10.0 mi WSW 8.1 mph - N/A   Clear
4:15 AM 29.5 °F 21.8 °F 16.9 °F 59% 30.24 in 10.0 mi SW 8.1 mph - N/A   Clear
4:35 AM 29.8 °F 22.2 °F 16.5 °F 58% 30.24 in 10.0 mi WSW 8.1 mph - N/A   Clear
4:55 AM 30.2 °F 22.6 °F 16.3 °F 56% 30.24 in 10.0 mi SW 8.1 mph 18.4 mph N/A   Clear
5:15 AM 31.5 °F 24.2 °F 15.3 °F 51% 30.24 in 10.0 mi WSW 8.1 mph - N/A   Clear
5:35 AM 31.1 °F 23.7 °F 15.4 °F 52% 30.24 in 10.0 mi SW 8.1 mph - N/A   Clear
5:53 AM 30.2 °F 21.9 °F 14.0 °F 51% 30.24 in 10.0 mi SW 9.2 mph - N/A   Clear
6:53 AM 32.0 °F 24.2 °F 14.0 °F 48% 30.24 in 10.0 mi WSW 9.2 mph 16.1 mph N/A   Clear
7:53 AM 33.8 °F 27.7 °F 14.0 °F 44% 30.25 in 10.0 mi SW 6.9 mph - N/A   Clear
8:53 AM 37.4 °F 29.8 °F 15.8 °F 41% 30.26 in 10.0 mi SW 11.5 mph 17.3 mph N/A   Clear
9:53 AM 39.2 °F 32.0 °F 15.8 °F 39% 30.27 in 10.0 mi West 11.5 mph - N/A   Clear
10:53 AM 42.8 °F 35.8 °F 14.0 °F 31% 30.23 in 10.0 mi West 13.8 mph - N/A   Clear
11:53 AM 44.6 °F 38.8 °F 14.0 °F 29% 30.21 in 10.0 mi WSW 11.5 mph - N/A   Clear
12:53 PM 51.8 °F - 10.4 °F 19% 30.17 in 10.0 mi West 13.8 mph - N/A   Clear
1:53 PM 51.8 °F - 8.6 °F 18% 30.17 in 10.0 mi West 13.8 mph 19.6 mph N/A   Scattered Clouds
2:53 PM 50.0 °F - 10.4 °F 20% 30.17 in 10.0 mi WNW 10.4 mph - N/A   Scattered Clouds
3:53 PM 48.2 °F - 10.4 °F 22% 30.17 in 10.0 mi West 8.1 mph - N/A   Partly Cloudy
4:53 PM 46.4 °F 43.5 °F 8.6 °F 22% 30.17 in 10.0 mi WSW 5.8 mph - N/A   Clear
5:53 PM 41.0 °F 37.1 °F 8.6 °F 26% 30.18 in 10.0 mi WSW 5.8 mph - N/A   Clear
6:53 PM 41.0 °F 37.1 °F 10.4 °F 29% 30.18 in 10.0 mi WSW 5.8 mph - N/A   Clear
9:55 PM 39.2 °F 33.6 °F 11.1 °F 32% 30.17 in 10.0 mi WSW 8.1 mph - N/A   Clear
10:15 PM 38.8 °F 33.8 °F 12.0 °F 33% 30.17 in 10.0 mi West 6.9 mph - N/A   Clear
10:35 PM 38.5 °F 34.1 °F 12.2 °F 34% 30.17 in 10.0 mi West 5.8 mph - N/A   Clear
10:55 PM 37.8 °F 32.5 °F 13.1 °F 36% 30.18 in 10.0 mi West 6.9 mph - N/A   Clear
11:15 PM 38.5 °F 32.1 °F 13.6 °F 36% 30.18 in 10.0 mi WSW 9.2 mph - N/A   Clear
11:35 PM 37.9 °F 32.1 °F 13.6 °F 37% 30.17 in 10.0 mi WSW 8.1 mph - N/A   Clear
11:55 PM 39.4 °F 35.2 °F 13.6 °F 35% 30.18 in 10.0 mi WSW 5.8 mph - N/A   Clear